Preview of NWS' New Version of Forecast
This preview is not operational and should not be used for support decisions.

Regional Weather Roundup (RWR)

Issued by National Weather Service (NWS)

                            
000
ASUS45 KBOI 242110
RWRID 

IDAHO REGIONAL WEATHER ROUNDUP
NATIONAL WEATHER SERVICE BOISE ID
300 PM MDT WED APR 24 2019

NOTE: "FAIR" INDICATES FEW OR NO CLOUDS BELOW 12000 FEET
WITH NO SIGNIFICANT WEATHER AND/OR OBSTRUCTIONS TO VISIBILITY

IDZ012-014-242200-
SOUTHWEST IDAHO

  
CITY           SKY/WX    TMP DP  RH WIND       PRES   REMARKS
BOISE          FAIR      68  43  40 NW13G26   30.10S                  
CALDWELL       FAIR      69  40  34 NW16G22   30.10F                  
MOUNTAIN HOME  MOSUNNY   70  44  39 NW18G30   30.07S                  
$$

IDZ016-017-242200-
SOUTHCENTRAL IDAHO

  
CITY           SKY/WX    TMP DP  RH WIND       PRES   REMARKS
BURLEY         FAIR      68  40  35 W20G29    30.05S                  
JEROME         FAIR      68  46  45 W21G26    30.07S                  
TWIN FALLS     FAIR      68  45  43 W18G28    30.08S                  
$$

IDZ019>023-242200-
SOUTHEAST IDAHO

  
CITY           SKY/WX    TMP DP  RH WIND       PRES   REMARKS
IDAHO FALLS    PTSUNNY   67  38  34 SW22G29   29.98F                  
POCATELLO      FAIR      69  42  37 W29       30.03F                  
REXBURG        LGT RAIN  65  36  34 W12       29.97F                  
$$

IDZ006-010-011-018-031-032-242200-
CENTRAL IDAHO MOUNTAINS

  
CITY           SKY/WX    TMP DP  RH WIND       PRES   REMARKS
MCCALL         FAIR      57  29  34 N9        30.12S                  
HAILEY         MOSUNNY   64  34  32 W12G26    30.06F                  
STANLEY          N/A     53  27  36 N12       30.14S                  
SALMON         FAIR      62  35  36 E9G17     30.05F                  
CHALLIS        FAIR      66  27  23 NW18G26   30.03S                  
$$

IDZ002-004-006-007-026-242200-
NORTHERN IDAHO

  
CITY           SKY/WX    TMP DP  RH WIND       PRES   REMARKS
LEWISTON       FAIR      65  37  35 W13       30.18S                  
LOWELL           N/A     66  38  35 SE6       30.14F                  
COEUR D'ALENE  FAIR      60  31  33 SW8G16    30.15F                  
MULLAN PASS    FAIR      44  22  41 VRB6      30.14S                  
$$